Regional Weather Roundup
Issued by NWS

Home | Current Version | Previous Version | Text Only | Print | Product List | Glossary Off
Versions: 1 2 3 4 5 6 7 8 9 10 11 12 13 14 15 16 17 18 19 20 21 22 23 24 25 26 27 28 29 30 31 32 33 34 35 36 37 38 39 40 41 42 43 44 45 46 47 48 49 50

000
ASUS43 KLOT 210107
RWRIL

ILLINOIS REGIONAL WEATHER ROUNDUP
NATIONAL WEATHER SERVICE CHICAGO/ROMEOVILLE IL
700 PM CST FRI JAN 20 2017

NOTE: "FAIR" INDICATES FEW OR NO CLOUDS BELOW 12,000 FEET WITH NO
SIGNIFICANT WEATHER AND/OR OBSTRUCTIONS TO VISIBILITY.

* THESE STATIONS ARE NOT UNDER NWS QUALITY CONTROL. THEY ALSO MAY NOT
  REPORT WEATHER SUCH AS PRECIPITATION OR FOG.

ILZ001-002-007-009-015-016-024-210200-
NORTHWEST ILLINOIS

CITY           SKY/WX    TMP DP  RH WIND       PRES   REMARKS
MOLINE         FOG       43  41  93 E7        29.59S VSB 3/4
STERLING*      FOG       38  38 100 E5        29.63R VSB 1/4 WCI  34
SAVANNA*       FOG       39  39 100 E5        29.62R VSB 1/2
$$

ILZ003-004-008-010-011-017-018-210200-
NORTH CENTRAL ILLINOIS

CITY           SKY/WX    TMP DP  RH WIND       PRES   REMARKS
ROCKFORD       DRZL/FOG  40  39  97 SE6       29.65R VSB 1/4
FREEPORT*      FOG       37  37  99 E5        29.65R VSB 1/4 WCI  33
ROCHELLE*      FOG       38  38 100 SE6       29.64R VSB 1/4 WCI  34
DE KALB*       FOG       39  39 100 E6        29.64S VSB 1/4 WCI  35
$$

ILZ005-006-012>014-019>023-210200-
NORTHEAST ILLINOIS

CITY           SKY/WX    TMP DP  RH WIND       PRES   REMARKS
CHICAGO-OHARE  DRZL/FOG  41  41 100 SE7       29.65R VSB 3/4
CHICAGO-MIDWAY CLOUDY    41  39  93 E6        29.66S FOG
AURORA         FOG       42  40  92 E5        29.64S VSB 1/4
LANSING*       CLOUDY    44  44 100 SE5       29.66S FOG
JOLIET*        CLOUDY    45  45 100 SE3       29.65S FOG
WAUKEGAN       FOG       37  36  96 E5        29.66R VSB 1/4 WCI  33
DUPAGE AIRPORT FOG       42  40  92 SE5       29.64R VSB 1/4
KANKAKEE*      CLOUDY    46  46  98 CALM      29.66R FOG
WHEELING       FOG       39  39 100 CALM      29.66S VSB 1/2
MORRIS*        CLOUDY    44  43  97 SE5       29.63S FOG
ROMEOVILLE*    CLOUDY    43  43 100 SE3       29.65S FOG
NORTHERLY ISL    N/A     36  35  96 E1          N/A
$$

LMZ740>746-210200-
SOUTHERN LAKE MICHIGAN

STATION/POSITION SKY/WX   TEMP    WIND        PRES    VSBY  WAVE
                          AIR SEA DIR/SP/G                  HT/PER
                          (F)     (DEG/KT/KT) (MB)    (MI)  (FT/S)
HARRISON CRIB              39     120/ 13/ 13   N/A
BURNHAM HARBOR             36      CALM  /  1   N/A
CALUMET HARBOR             36     100/  4/  5 1004.2S
BURNS HARBOR               47     160/  9/ 15 1005.4F
MICHIGAN CITY              45     140/  9/ 10   N/A
$$

ILZ025>027-034>036-040-047-049-050-058-095>099-210200-
WEST-CENTRAL ILLINOIS

CITY           SKY/WX    TMP DP  RH WIND       PRES   REMARKS
QUINCY         CLOUDY    48  47  96 SE9       29.55S FOG
GALESBURG*     FOG       44  44 100 E3        29.59R VSB 1/2
MACOMB*        FOG       45  45 100 E8        29.59F VSB 1/2
JACKSONVILLE*  CLOUDY    47  46  98 SE8       29.59S FOG
PITTSFIELD*    CLOUDY    48  48 100 E6        29.58S FOG
$$

ILZ028>032-037-038-041>044-048-051>054-059>061-210200-
CENTRAL ILLINOIS

CITY           SKY/WX    TMP DP  RH WIND       PRES   REMARKS
PONTIAC        FOG       45  45 100 SE5       29.65R VSB 1
BLOOMINGTON    LGT RAIN  47  47 100 SE7       29.63R
DECATUR        CLOUDY    50  50 100 SE6       29.63R
PEORIA         CLOUDY    48  48 100 SE6       29.61S FOG
LACON*         LGT RAIN  46  46 100 SE6       29.60F
LINCOLN*       CLOUDY    49  49 100 CALM      29.62R FOG
SPRINGFIELD    CLOUDY    50  48  93 SE8       29.61S FOG
TAYLORVILLE    CLOUDY    51  49  95 SE6       29.61S
$$

ILZ033-039-045-046-055>057-062-063-210200-
EAST-CENTRAL ILLINOIS

CITY           SKY/WX    TMP DP  RH WIND       PRES   REMARKS
CHAMPAIGN      CLOUDY    49  47  93 E8        29.64R
RANTOUL*       CLOUDY    50  49  98 SE9       29.65R
MATTOON        MOCLDY    53  50  89 S9        29.63R
PARIS*         CLOUDY    50  49  95 SE7       29.66S
$$

ILZ079-100>102-210200-
SOUTHWEST ILLINOIS

CITY           SKY/WX    TMP DP  RH WIND       PRES   REMARKS
ALTON          PTCLDY    50  48  93 E6        29.59S
BELLEVILLE     CLOUDY    55  55 100 E5        29.59R
CAHOKIA*       CLOUDY    53  49  86 SE5       29.58S
SPARTA*        MOCLDY    56  52  86 S10G17    29.61S
$$

ILZ064>066-069>071-074>076-080>082-084>086-088>090-092>094-210200-
SOUTH-CENTRAL ILLINOIS

CITY           SKY/WX    TMP DP  RH WIND       PRES   REMARKS
CARBONDALE     PTCLDY    56  53  90 S10       29.64R
CAIRO*         CLEAR     55  52  90 S6        29.66R
EFFINGHAM*     CLOUDY    55  55 100 SE5       29.66R
MARION         CLOUDY    57  55  94 S10G16    29.66R
MT. VERNON     CLOUDY    57  52  83 S8        29.64R
CENTRALIA*     MOCLDY    56  53  91 S8        29.62S
SALEM*         CLOUDY    57  52  83 S6        29.63R
METROPOLIS*    PTCLDY    55  52  90 CALM      29.67F
$$

ILZ067-068-072-073-078-083-087-091-210200-
SOUTHEAST ILLINOIS

CITY           SKY/WX    TMP DP  RH WIND       PRES   REMARKS
LAWRENCEVILLE  PTCLDY    50  50 100 SE12      29.66F
FLORA*         MOCLDY    56  53  89 S8        29.65R
FAIRFIELD*     PTCLDY    55  52  88 S7        29.65R
HARRISBURG*    CLEAR     57  52  84 S12       29.66R
ROBINSON*      CLOUDY    53  51  92 SE6       29.67S
CARMI*         PTCLDY    55  52  90 S10       29.66S
$$

ABBREVIATIONS USED IN REMARKS
   TC - TEMPERATURE IN CELSIUS
  WCI - WIND CHILL INDEX
   HX - HEAT INDEX
  VSB - VISIBILITY
$$





USA.gov is the U.S. government's official web portal to all federal, state and local government web resources and services.